Meteopurmerend
purmerend
Purmerend - Baaienwijk



My webcam  My webcam


Onweer radar Meer informatie blitzortung!


Regen radar Meer informatie rain snow radar


Bezoek onze andere website:

CandyAppleRed WebdesignWebdesign Purmerend Candy Apple Red

MeteopurmerendBlog

Template documentation
and downloads



Het weer levert geen direct gevaar op.    Er zijn geen waarschuwingen afgegeven.

15 daagse weersverwachting 0.000N 0.000E

  • Overzicht
  • Per uur
  • 15 dagen
  • Extra
  • Vergelijk
  • Kaarten
  • Dagkaart
  • Meer »
  • Info
  • Statistieken
  • Directe link
    Temp 6h Neerslag Wind  
 02:00     19:09    Daglengte: 17:09 Vandaag
06:00
19°
1.9 mm
4
12:00
21°
15.3 mm
4
18:00
20°
2.4 mm
5
 02:02     19:07    Daglengte: 17:05 Morgen
00:00
18°
 
4
06:00
19°
 
6
12:00
21°
2.7 mm
6
18:00
19°
 
5
 02:04     19:04    Daglengte: 17:00 Vrijdag 30 Jul
00:00
16°
 
4
06:00
17°
22.2 mm
5
12:00
18°
64.9 mm
5
warningclass
18:00
16°
94.5 mm
2
 02:07     19:02    Daglengte: 16:55 Zaterdag 31 Jul
00:00
14°
 
2
Locatie info
Region:
Latitude: 60.4202°N
Longitude: 23.2372°E
0 masl
Temp/Neerslag /Baro Onweer/Dauwpunt
    Temp Baro 1h Neerslag Dauwpunt Wind UV Bewolking  
 02:00     19:09    Daglengte: 17:09 Vandaag
05:00
19°
1007.8 hPa
48%
17.8°
4
Windvlaag: 1.7 m/s
86%
06:00
19°
1007.3 hPa 1.9 mm
82%
17.8°
4
Windvlaag: 0.7 m/s
86%
07:00
19°
1006.8 hPa 2.7 mm
82%
18.2°
4
Windvlaag: 1.3 m/s
86%
08:00
19°
1006.3 hPa 3.3 mm
82%
18.5°
4
Windvlaag: 1.2 m/s
86% warningclass
09:00
20°
1005.7 hPa 1.8 mm
82%
18.6°
4
Windvlaag: 1.5 m/s
86% warningclass
10:00
21°
1005.4 hPa 2.6 mm
82%
19.4°
4
Windvlaag: 3.6 m/s
84%
11:00
21°
1004.8 hPa 2.3 mm
82%
19.7°
4
Windvlaag: 5.4 m/s
84%
12:00
21°
1004.4 hPa 2.4 mm
74%
20.1°
4
Windvlaag: 5.6 m/s
32%
13:00
21°
1003.8 hPa
42%
20.1°
4
Windvlaag: 7.6 m/s
86%
14:00
20°
1003.8 hPa 2.4 mm
82%
19.2°
4
Windvlaag: 8.8 m/s
68% warningclass
15:00
21°
1003.5 hPa
76%
18.9°
5
Windvlaag: 8.9 m/s
75%
16:00
21°
1003.5 hPa
25%
17.7°
5
Windvlaag: 9.1 m/s
62%
17:00
20°
1003.1 hPa
16%
16.6°
5
Windvlaag: 9.7 m/s
67%
18:00
20°
1003.0 hPa
21%
16.8°
5
Windvlaag: 9.7 m/s
58%
19:00
19°
1002.7 hPa
26%
17.2°
5
Windvlaag: 10.7 m/s
65%
20:00
19°
1002.6 hPa
69%
17.6°
4
Windvlaag: 10.8 m/s
64%
21:00
19°
1002.5 hPa
23%
17.8°
4
Windvlaag: 9.4 m/s
65%
22:00
18°
1002.2 hPa
65%
17.8°
4
Windvlaag: 9.4 m/s
55%
23:00
18°
1001.8 hPa
53%
17.7°
4
Windvlaag: 9 m/s
58%
 02:02     19:07    Daglengte: 17:05 Morgen
00:00
18°
1001.2 hPa
15%
17.8°
4
Windvlaag: 9.7 m/s
34%
01:00
18°
1000.6 hPa
25%
18.0°
4
Windvlaag: 9.6 m/s
42%
02:00
18°
1000.1 hPa
22%
17.9°
5
Windvlaag: 9.2 m/s
56%
03:00
18°
999.7 hPa
20%
17.9°
5
Windvlaag: 8.6 m/s
39%
04:00
19°
999.4 hPa
27%
18.0°
5
Windvlaag: 8.3 m/s
73%
05:00
19°
998.9 hPa
81%
17.8°
5
Windvlaag: 8.4 m/s
58%
06:00
19°
998.6 hPa
82%
18.0°
6
Windvlaag: 8.1 m/s
49%
07:00
19°
998.6 hPa 2.7 mm
82%
17.8°
6
Windvlaag: 7.7 m/s
69% warningclass
08:00
20°
998.6 hPa
82%
17.8°
5
Windvlaag: 5.3 m/s
55%
09:00
20°
998.7 hPa
82%
18.0°
6
Windvlaag: 5 m/s
55%
10:00
21°
998.6 hPa
82%
18.5°
6
Windvlaag: 4.8 m/s
44%
11:00
21°
998.5 hPa
82%
18.4°
6
Windvlaag: 6.9 m/s
41%
12:00
21°
998.3 hPa
82%
18.2°
6
Windvlaag: 7.1 m/s
24%
13:00
21°
997.9 hPa
82%
16.1°
6
Windvlaag: 6.9 m/s
56%
14:00
21°
997.6 hPa
82%
13.2°
6
Windvlaag: 7.8 m/s
23%
15:00
21°
997.3 hPa
76%
13.7°
6
Windvlaag: 7.7 m/s
10%
16:00
21°
996.8 hPa
73%
14.8°
6
Windvlaag: 7.7 m/s
4%
17:00
20°
996.4 hPa
64%
16.2°
6
Windvlaag: 7.8 m/s
6%
18:00
19°
996.2 hPa
27%
16.6°
5
Windvlaag: 7.8 m/s
11%
19:00
18°
996.1 hPa
15%
17.3°
4
Windvlaag: 7.7 m/s
10%
20:00
18°
996.0 hPa
14%
17.0°
4
Windvlaag: 7.9 m/s
25%
21:00
17°
995.6 hPa
16%
16.7°
4
Windvlaag: 9.4 m/s
32%
22:00
17°
995.2 hPa
15%
16.4°
4
Windvlaag: 8 m/s
18%
23:00
17°
994.9 hPa
52%
15.9°
4
Windvlaag: 8.7 m/s
28%
 02:04     19:04    Daglengte: 17:00 Vrijdag 30 Jul
00:00
16°
994.5 hPa
23%
15.7°
4
Windvlaag: 9 m/s
15%
01:00
16°
994.2 hPa
14%
15.4°
4
Windvlaag: 8.9 m/s
30%
02:00
16°
994.0 hPa
14%
15.1°
4
Windvlaag: 7.3 m/s
31%
03:00
16°
994.4 hPa 5.3 mm
21%
12.8°
4
Windvlaag: 7.9 m/s
49%
04:00
16°
993.8 hPa 5.4 mm
21%
12.8°
4
Windvlaag: 7.1 m/s
37% warningclass
05:00
17°
993.3 hPa 5.8 mm
29%
12.3°
5
Windvlaag: 8.9 m/s
40%
06:00
17°
993.1 hPa 5.6 mm
32%
14.0°
5
Windvlaag: 8.7 m/s
14%
07:00
17°
993.0 hPa 8.5 mm
93%
14.5°
4
Windvlaag: 7.4 m/s
85%
08:00
16°
992.8 hPa 9.4 mm
100%
15.4°
4
Windvlaag: 7 m/s
53%
09:00
18°
992.7 hPa 10.4 mm
100%
13.9°
5
Windvlaag: 10.5 m/s
76% warningclass
10:00
16°
992.7 hPa 11.8 mm
95%
14.0°
6
Windvlaag: 11.6 m/s
64%
11:00
17°
992.3 hPa 12.2 mm
39%
15.8°
5
Windvlaag: 9.8 m/s
67% warningclass
12:00
18°
992.0 hPa 12.6 mm
100%
14.6°
5
Windvlaag: 9.2 m/s
62% warningclass
13:00
18°
991.2 hPa 13.5 mm
100%
14.8°
4
Windvlaag: 9.8 m/s
57%
14:00
18°
991.0 hPa 15.5 mm
100%
16.3°
4
Windvlaag: 9.9 m/s
76%
15:00
17°
990.6 hPa 15.1 mm
95%
14.0°
4
Windvlaag: 9.5 m/s
42%
16:00
17°
990.0 hPa 16.6 mm
39%
15.5°
3
Windvlaag: 7.8 m/s
35%
17:00
17°
989.9 hPa 16.5 mm
34%
15.0°
2
Windvlaag: 7.4 m/s
76%
18:00
16°
989.1 hPa 17.4 mm
21%
15.5°
2
Windvlaag: 4.1 m/s
51%
19:00
16°
989.2 hPa
21%
15.1°
2
Windvlaag: 1.9 m/s
32%
20:00
15°
989.6 hPa
21%
14.1°
1
Windvlaag: 0.2 m/s
39%
21:00
14°
990.1 hPa
21%
13.6°
1
Windvlaag: -0.2 m/s
42%
22:00
14°
990.6 hPa
21%
13.6°
2
Windvlaag: 1.3 m/s
50%
23:00
14°
991.3 hPa
21%
13.4°
2
Windvlaag: 2.6 m/s
55%
 02:07     19:02    Daglengte: 16:55 Zaterdag 31 Jul
00:00
14°
991.8 hPa
21%
13.2°
2
Windvlaag: 3.3 m/s
61%
01:00
15°
993.2 hPa
21%
13.1°
3
Windvlaag: 13 m/s
19%
02:00
14°
994.0 hPa
21%
12.9°
3
Windvlaag: 11.9 m/s
45%
03:00
14°
994.7 hPa
21%
12.5°
3
Windvlaag: 10.9 m/s
42%
04:00
14°
995.2 hPa
21%
12.3°
3
Windvlaag: 9.9 m/s
14%
Temp/Neerslag /Baro Onweer/Dauwpunt
    Temp Baro Neerslag Dauwpunt Wind Bewolking  
 02:00     19:09    Daglengte: 17:09 Vandaag
06:00
19°
1007.3 hPa 1.9 mm 17.8°
4
86%
09:00
20°
1005.7 hPa 7.9 mm 18.6°
4
86% warningclass
12:00
21°
1004.4 hPa 7.4 mm 20.1°
4
32%
15:00
21°
1003.5 hPa 2.4 mm 18.9°
5
75% warningclass
18:00
20°
1003.0 hPa   16.8°
5
58%
21:00
19°
1002.5 hPa   17.8°
4
65%
 02:02     19:07    Daglengte: 17:05 Morgen
00:00
18°
1001.2 hPa   17.8°
4
34%
03:00
18°
999.7 hPa   17.9°
5
39%
06:00
19°
998.6 hPa   18.0°
6
49%
09:00
20°
998.7 hPa 2.7 mm 18.0°
6
55%
12:00
21°
998.3 hPa   18.2°
6
24%
15:00
21°
997.3 hPa   13.7°
6
10%
18:00
19°
996.2 hPa   16.6°
5
11%
21:00
17°
995.6 hPa   16.7°
4
32%
 02:04     19:04    Daglengte: 17:00 Vrijdag 30 Jul
00:00
16°
994.5 hPa   15.7°
4
15%
03:00
16°
994.4 hPa 5.3 mm 12.8°
4
49%
06:00
17°
993.1 hPa 16.8 mm 14.0°
5
14%
09:00
18°
992.7 hPa 28.3 mm 13.9°
5
76% warningclass
12:00
18°
992.0 hPa 36.6 mm 14.6°
5
62% warningclass
15:00
17°
990.6 hPa 44.1 mm 14.0°
4
42%
18:00
16°
989.1 hPa 50.5 mm 15.5°
2
51%
21:00
14°
990.1 hPa   13.6°
1
42%
 02:07     19:02    Daglengte: 16:55 Zaterdag 31 Jul
00:00
14°
991.8 hPa   13.2°
2
61%
03:00
14°
994.7 hPa   12.5°
3
42%
06:00
17°
996.0 hPa   13.6°
2
20%
09:00
20°
996.1 hPa 30.3 mm 11.9°
4
0%
12:00
20°
998.0 hPa 30.3 mm 12.7°
5
1%
15:00
19°
998.7 hPa 30.4 mm 11.9°
4
1%
18:00
16°
999.4 hPa 30.4 mm 13.0°
2
1%
21:00
14°
999.0 hPa 30.4 mm 13.4°
1
0%
 02:09     18:59    Daglengte: 16:50 Zondag 01 Aug
00:00
14°
997.9 hPa 30.4 mm 13.6°
2
0%
03:00
14°
996.2 hPa 31.3 mm 14.1°
2
1%
06:00
16°
995.4 hPa 36.1 mm 15.0°
3
1%
09:00
15°
995.2 hPa 41.5 mm 14.6°
1
1%
12:00
17°
996.2 hPa 41.7 mm 14.4°
2
1%
15:00
21°
996.7 hPa 41.7 mm 13.2°
4
1%
18:00
17°
997.8 hPa 42.1 mm 15.0°
3
1%
21:00
14°
998.6 hPa 43.3 mm 14.0°
2
0%
 02:12     18:57    Daglengte: 16:45 Maandag 02 Aug
00:00
13°
998.8 hPa 43.6 mm 12.9°
1
0%
03:00
13°
999.7 hPa 43.7 mm 12.4°
1
1%
06:00
17°
999.8 hPa 43.7 mm 14.7°
2
1%
09:00
20°
1000.7 hPa 44.3 mm 12.6°
4
1%
12:00
21°
1000.7 hPa 44.5 mm 9.2°
5
1%
15:00
18°
1001.4 hPa 45.1 mm 14.3°
3
1%
18:00
14°
1002.9 hPa 45.8 mm 13.1°
3
0%
21:00
11°
1004.2 hPa 45.8 mm 10.1°
2
0%
 02:14     18:54    Daglengte: 16:40 Dinsdag 03 Aug
00:00
10°
Voelt als: 8.8°
1005.8 hPa 45.8 mm 9.3°
2
0%
03:00
10°
Voelt als: 8.5°
1007.0 hPa 45.8 mm 8.6°
2
0%
06:00
15°
1008.1 hPa 45.8 mm 9.8°
2
0%
09:00
19°
1008.7 hPa 45.8 mm 6.8°
2
0%
12:00
17°
1009.7 hPa 45.8 mm 10.1°
3
1%
15:00
19°
1010.0 hPa 45.8 mm 8.4°
3
1%
18:00
15°
1010.7 hPa 45.8 mm 9.1°
1
1%
21:00
11°
1012.0 hPa 45.8 mm 7.5°
1
1%
 02:16     18:51    Daglengte: 16:35 Woensdag 04 Aug
00:00
10°
Voelt als: 9.7°
1012.3 hPa 45.8 mm 6.7°
1
1%
03:00
10°
Voelt als: 9.3°
1012.2 hPa   6.7°
2
1%
06:00
15°
1012.3 hPa 91.6 mm 8.0°
2
1%
12:00
19°
1011.7 hPa 93.2 mm 13.8°
3
1%
18:00
16°
1011.8 hPa 97.3 mm 13.5°
2
0%
 02:19     18:49    Daglengte: 16:30 Donderdag 05 Aug
00:00
13°
1012.9 hPa 97.7 mm 11.9°
2
0%
06:00
18°
1013.0 hPa 97.7 mm 13.7°
2
1%
12:00
21°
1012.0 hPa 98.0 mm 11.4°
4
1%
18:00
17°
1009.7 hPa 98.2 mm 12.6°
3
1%
 02:21     18:46    Daglengte: 16:25 Vrijdag 06 Aug
00:00
17°
1007.3 hPa 98.2 mm 12.8°
3
1%
06:00
20°
1005.7 hPa 98.6 mm 13.5°
4
1%
12:00
24°
1005.4 hPa 98.9 mm 15.4°
4
1%
18:00
21°
1004.2 hPa 99.9 mm 16.8°
3
1%
 02:24     18:43    Daglengte: 16:19 Zaterdag 07 Aug
00:00
15°
1009.6 hPa 0.7 mm 12.7°
2
68%
06:00
18°
1008.6 hPa 0.8 mm 13.9°
3
67%
12:00
21°
1007.9 hPa 2.3 mm 14.2°
3
75%
18:00
18°
1007.5 hPa 2.0 mm 14.2°
2
72%
 02:26     18:41    Daglengte: 16:15 Zondag 08 Aug
00:00
15°
1007.5 hPa 0.6 mm 13.7°
2
65%
06:00
18°
1007.2 hPa 0.5 mm 14.5°
2
71%
12:00
21°
1007.9 hPa 0.8 mm 13.9°
3
77%
18:00
18°
1008.5 hPa 0.7 mm 14.1°
2
61%
 02:29     18:38    Daglengte: 16:09 Maandag 09 Aug
00:00
15°
1009.5 hPa 0.5 mm 13.6°
1
67%
06:00
18°
1010.1 hPa 0.4 mm 14.2°
2
64%
12:00
21°
1011.0 hPa 0.9 mm 13.8°
2
68%
18:00
17°
1011.2 hPa 0.6 mm 14.0°
1
67%
 02:31     18:35    Daglengte: 16:04 Dinsdag 10 Aug
00:00
15°
1011.7 hPa 0.3 mm 12.9°
0
66%
06:00
18°
1011.7 hPa 0.4 mm 13.9°
1
75%
12:00
21°
1012.1 hPa   13.7°
1
69%
18:00
18°
1012.0 hPa 0.3 mm 14.1°
1
63%
 02:33     18:32    Daglengte: 15:59 Woensdag 11 Aug
00:00
15°
1012.5 hPa 0.4 mm 13.3°
0
49%
06:00
18°
1012.5 hPa 0.6 mm 14.1°
0
55%
12:00
22°
1012.5 hPa 0.7 mm 13.3°
1
53%
18:00
18°
1012.1 hPa 0.7 mm 13.7°
1
55%
 02:36     18:29    Daglengte: 15:53 Donderdag 12 Aug
00:00
15°
1012.0 hPa 0.5 mm 12.6°
0
62%
  CAPE Lifted Index Hail Supercell Tornado SRH 3km CL BTM PRES CL TOP PRES Swiss DWD icon SMHI TS
 02:00     19:09    Daglengte: 17:09 Vandaag
05:00 82 J/kg 0.2 K 0 % 0 % 0 % 0 m²/s² 0 0 0.2 61
06:00 45 J/kg 0.4 K 0 % 0 % 0 % 0 m²/s² 0 0 0.4 61
07:00 3 J/kg 0.0 K 0 % 0 % 0 % 0 m²/s² 0 0 0 80
08:00 8 J/kg 0.3 K 0 % 0 % 0 % 0 m²/s² 0 0 0.48 95
09:00 5 J/kg -0.2 K 0 % 0 % 0 % 0 m²/s² 0 0 -0.11 95
10:00 0 J/kg -0.6 K 0 % 0 % 0 % 0 m²/s² 0 0 -0.6 80
11:00 498 J/kg -1.7 K 0 % 0 % 0 % 0 m²/s² 0 0 -1.49 80
12:00 822 J/kg -2.5 K 0 % 0 % 0 % 0 m²/s² 0 0 -1.87 80
13:00 1067 J/kg -3.4 K 0 % 0 % 0 % 0 m²/s² 0 0 -2.53 3
14:00 1268 J/kg -4.1 K 0 % 0 % 0 % 0 m²/s² 0 0 -2.93 80
15:00 1175 J/kg -3.7 K 0 % 0 % 0 % 0 m²/s² 0 0 -2.38 3
16:00 407 J/kg -1.7 K 0 % 0 % 0 % 0 m²/s² 0 0 0.04 3
17:00 418 J/kg -1.6 K 0 % 0 % 0 % 0 m²/s² 0 0 1.25 3
18:00 492 J/kg -2.0 K 0 % 0 % 0 % 0 m²/s² 0 0 0.94 2
19:00 467 J/kg -1.8 K 0 % 0 % 0 % 0 m²/s² 0 0 0.9 3
20:00 393 J/kg -1.5 K 0 % 0 % 0 % 0 m²/s² 0 0 0.96 2
21:00 354 J/kg -1.8 K 0 % 0 % 0 % 0 m²/s² 0 0 1.05 3
22:00 400 J/kg -1.9 K 0 % 0 % 0 % 0 m²/s² 0 0 1.04 3
23:00 470 J/kg -2.2 K 0 % 0 % 0 % 0 m²/s² 0 0 0.65 3
 02:02     19:07    Daglengte: 17:05 Morgen
00:00 494 J/kg -2.2 K 0 % 0 % 0 % 0 m²/s² 0 0 -0.16 2
01:00 491 J/kg -2.2 K 0 % 0 % 0 % 0 m²/s² 0 0 -0.55 3
02:00 566 J/kg -2.4 K 0 % 0 % 0 % 0 m²/s² 0 0 -0.81 2
03:00 743 J/kg -3.1 K 0 % 0 % 0 % 0 m²/s² 0 0 -2.05 3
04:00 1050 J/kg -4.2 K 0 % 0 % 0 % 0 m²/s² 0 0 -3.3 3
05:00 1266 J/kg -4.7 K 0 % 0 % 0 % 0 m²/s² 0 0 -3.71 3
06:00 1331 J/kg -4.6 K 0 % 0 % 0 % 0 m²/s² 0 0 -4.03 3
07:00 1135 J/kg -4.0 K 0 % 0 % 0 % 0 m²/s² 0 0 -3.49 80
08:00 968 J/kg -3.6 K 0 % 0 % 0 % 0 m²/s² 0 0 -2.76 80
09:00 715 J/kg -3.0 K 0 % 0 % 0 % 0 m²/s² 0 0 -1.8 80
10:00 466 J/kg -2.1 K 0 % 0 % 0 % 0 m²/s² 0 0 1.2 3
11:00 317 J/kg -1.6 K 0 % 0 % 0 % 0 m²/s² 0 0 1.79 80
12:00 260 J/kg -1.4 K 0 % 0 % 0 % 0 m²/s² 0 0 2.08 2
13:00 186 J/kg -0.8 K 0 % 0 % 0 % 0 m²/s² 0 0 2.68 3
14:00 114 J/kg -0.1 K 0 % 0 % 0 % 0 m²/s² 0 0 2.87 80
15:00 126 J/kg 0.2 K 0 % 0 % 0 % 0 m²/s² 0 0 3.08 3
16:00 171 J/kg -0.2 K 0 % 0 % 0 % 0 m²/s² 0 0 2.44 3
17:00 292 J/kg -0.8 K 0 % 0 % 0 % 0 m²/s² 0 0 1.03 2
18:00 480 J/kg -1.5 K 0 % 0 % 0 % 0 m²/s² 0 0 -0.24 2
19:00 587 J/kg -1.4 K 0 % 0 % 0 % 0 m²/s² 0 0 0.55 2
20:00 165 J/kg 0.5 K 0 % 0 % 0 % 0 m²/s² 0 0 4.07 2
21:00 361 J/kg -0.8 K 0 % 0 % 0 % 0 m²/s² 0 0 2.56 2
22:00 480 J/kg -0.6 K 0 % 0 % 0 % 0 m²/s² 0 0 1.08 2
23:00 384 J/kg 0.5 K 0 % 0 % 0 % 0 m²/s² 0 0 3.47 2
 02:04     19:04    Daglengte: 17:00 Vrijdag 30 Jul
00:00 542 J/kg -0.7 K 0 % 0 % 0 % 0 m²/s² 0 0 1.37 2
01:00 381 J/kg 0.1 K 0 % 0 % 0 % 0 m²/s² 0 0 2.29 2
02:00 350 J/kg -1.2 K 0 % 0 % 0 % 0 m²/s² 0 0 -0.06 2
03:00 412 J/kg -1.7 K 0 % 0 % 0 % 0 m²/s² 0 0 -0.11 2
04:00 733 J/kg -3.7 K 0 % 0 % 0 % 0 m²/s² 0 0 -2.44 2
05:00 690 J/kg -3.1 K 0 % 0 % 0 % 0 m²/s² 0 0 -0.49 2
06:00 461 J/kg -2.0 K 0 % 0 % 0 % 0 m²/s² 0 0 -1.55 2
07:00 16 J/kg 0.3 K 0 % 0 % 0 % 0 m²/s² 0 0 0.39 2
08:00 307 J/kg -2.7 K 0 % 0 % 0 % 0 m²/s² 0 0 -2.25 2
09:00 856 J/kg -3.8 K 0 % 0 % 0 % 0 m²/s² 0 0 -2.99 2
10:00 53 J/kg 0.2 K 0 % 0 % 0 % 0 m²/s² 0 0 0.71 2
11:00 416 J/kg -2.7 K 0 % 0 % 0 % 0 m²/s² 0 0 -2.1 2
12:00 905 J/kg -3.1 K 0 % 0 % 0 % 0 m²/s² 0 0 -2.47 3
13:00 831 J/kg -2.7 K 0 % 0 % 0 % 0 m²/s² 0 0 -1.11 3
14:00 835 J/kg -3.5 K 0 % 0 % 0 % 0 m²/s² 0 0 -1.85 2
15:00 12 J/kg -0.1 K 0 % 0 % 0 % 0 m²/s² 0 0 0.68 2
16:00 632 J/kg -2.3 K 0 % 0 % 0 % 0 m²/s² 0 0 -0.86 3
17:00 632 J/kg -1.9 K 0 % 0 % 0 % 0 m²/s² 0 0 -1.66 3
18:00 560 J/kg -2.2 K 0 % 0 % 0 % 0 m²/s² 0 0 -1.96 3
19:00 350 J/kg -1.1 K 0 % 0 % 0 % 0 m²/s² 0 0 -0.86 3
20:00 105 J/kg 0.3 K 0 % 0 % 0 % 0 m²/s² 0 0 1.23 1
21:00 22 J/kg -0.6 K 0 % 0 % 0 % 0 m²/s² 0 0 2.16 1
22:00 118 J/kg -2.0 K 0 % 0 % 0 % 0 m²/s² 0 0 0.58 2
23:00 20 J/kg 0.2 K 0 % 0 % 0 % 0 m²/s² 0 0 3.53 1
 02:07     19:02    Daglengte: 16:55 Zaterdag 31 Jul
00:00 0 J/kg 0.9 K 0 % 0 % 0 % 0 m²/s² 0 0 3.96 2
01:00 1 J/kg 0.7 K 0 % 0 % 0 % 0 m²/s² 0 0 3.79 2
02:00 0 J/kg 1.3 K 0 % 0 % 0 % 0 m²/s² 0 0 5.74 2
03:00 0 J/kg 1.7 K 0 % 0 % 0 % 0 m²/s² 0 0 6.14 2
04:00 0 J/kg 1.9 K 0 % 0 % 0 % 0 m²/s² 0 0 4.21 1
Temp Baro Wind Neerslag
  EWN Forecast EWN WRFDA DWD ICON FMI HIRLAM MET Norway GFS
 02:00     19:09    Daglengte: 17:09 Vandaag
06:00 18.5° 1007.3 hPa 4.3 m/s 1.9 mm 18.5° 1007.6 hPa 4.5 m/s 5.4 mm 18.8° 1007.2 hPa 4.5 m/s 0.8 mm 18.5° 1007.6 hPa 3.0 m/s 0.0 mm 19.3° 1008.2 hPa 3.6 m/s
09:00 19.6° 1005.7 hPa 3.8 m/s 7.9 mm 18.8° 1006.7 hPa 5.2 m/s 14.5 mm 19.5° 1005.4 hPa 4.8 m/s 3.1 mm 20.8° 1006.7 hPa 3.0 m/s 0.0 mm 18.0° 1007.1 hPa 4.3 m/s
12:00 21.3° 1004.4 hPa 4.0 m/s 7.4 mm 20.6° 1005.0 hPa 3.0 m/s 21.4 mm 22.0° 1004.1 hPa 5.1 m/s 1.8 mm 21.7° 1005.7 hPa 3.3 m/s 0.0 mm 18.2° 1005.7 hPa 4.2 m/s
15:00 20.7° 1003.5 hPa 4.5 m/s 2.4 mm 22.3° 1004.0 hPa 4.8 m/s 27.7 mm 20.8° 1003.2 hPa 5.5 m/s 1.4 mm 20.7° 1005.2 hPa 3.5 m/s 0.0 mm 19.7° 1004.1 hPa 2.4 m/s
18:00 19.9° 1003.0 hPa 4.7 m/s 0.0 mm 19.9° 1003.9 hPa 3.8 m/s 30.7 mm 19.9° 1002.6 hPa 5.3 m/s 0.0 mm 20.8° 1004.6 hPa 2.7 m/s 0.0 mm 19.2° 1003.3 hPa 4.1 m/s
21:00 18.7° 1002.5 hPa 4.5 m/s 0.0 mm 18.0° 1003.1 hPa 4.1 m/s 31.0 mm 18.8° 1001.7 hPa 4.7 m/s 0.0 mm 18.9° 1004.1 hPa 2.8 m/s 0.0 mm 17.7° 1003.3 hPa 2.7 m/s
 02:02     19:07    Daglengte: 17:05 Morgen
00:00 18.2° 1001.2 hPa 4.4 m/s 0.0 mm 18.1° 1002.0 hPa 4.2 m/s 31.1 mm 18.2° 1000.4 hPa 4.7 m/s 0.1 mm 17.9° 1003.0 hPa 2.5 m/s 0.0 mm 17.6° 1002.0 hPa 3.0 m/s
03:00 18.4° 999.7 hPa 4.6 m/s 0.0 mm 18.8° 1000.8 hPa 3.7 m/s 31.2 mm 18.3° 998.9 hPa 5.0 m/s 0.0 mm 18.6° 1001.4 hPa 2.9 m/s 0.0 mm 17.4° 1000.8 hPa 3.1 m/s
06:00 19.1° 998.6 hPa 5.6 m/s 0.0 mm 20.1° 1000.0 hPa 4.3 m/s 33.8 mm 18.9° 997.6 hPa 6.1 m/s 0.3 mm 19.4° 999.9 hPa 3.5 m/s 0.0 mm 19.9° 1000.1 hPa 4.9 m/s
09:00 19.9° 998.7 hPa 5.6 m/s 2.7 mm 21.7° 1000.3 hPa 6.2 m/s 39.8 mm 19.6° 997.2 hPa 7.2 m/s 0.8 mm 20.6° 999.0 hPa 3.9 m/s 0.0 mm 21.0° 1000.7 hPa 5.3 m/s
12:00 20.9° 998.3 hPa 6.3 m/s 0.0 mm 23.1° 999.9 hPa 6.9 m/s 41.4 mm 20.5° 996.8 hPa 7.3 m/s 0.4 mm 20.7° 998.3 hPa 4.0 m/s 0.0 mm 22.7° 1000.5 hPa 5.9 m/s
15:00 21.2° 997.3 hPa 6.3 m/s 0.0 mm 22.2° 999.3 hPa 6.5 m/s 41.4 mm 20.1° 996.5 hPa 6.6 m/s 0.5 mm 22.6° 997.0 hPa 4.1 m/s 0.0 mm 22.3° 999.8 hPa 5.9 m/s
18:00 19.2° 996.2 hPa 5.4 m/s 0.0 mm 20.3° 998.2 hPa 4.3 m/s 41.4 mm 19.1° 995.8 hPa 6.1 m/s 0.1 mm 19.1° 995.6 hPa 1.7 m/s 0.0 mm 19.0° 998.9 hPa 4.5 m/s
21:00 17.1° 995.6 hPa 3.9 m/s 0.0 mm 16.5° 997.5 hPa 3.2 m/s 42.1 mm 17.6° 995.2 hPa 4.5 m/s 0.0 mm 16.4° 995.1 hPa 2.2 m/s 0.0 mm 16.9° 997.9 hPa 3.9 m/s
 02:04     19:04    Daglengte: 17:00 Vrijdag 30 Jul
00:00 16.3° 994.5 hPa 4.2 m/s 0.0 mm 17.2° 997.3 hPa 3.7 m/s 43.3 mm 16.2° 994.1 hPa 4.4 m/s 0.0 mm 15.9° 994.0 hPa 2.0 m/s 0.0 mm 14.9° 997.0 hPa 4.2 m/s
03:00 15.7° 994.4 hPa 3.7 m/s 5.3 mm 16.2° 995.9 hPa 3.7 m/s 45.9 mm 15.5° 993.2 hPa 3.8 m/s 0.0 mm 14.0° 996.2 hPa 3.2 m/s
06:00 16.7° 993.1 hPa 4.8 m/s 16.8 mm 16.0° 995.5 hPa 4.9 m/s 48.0 mm 17.1° 992.4 hPa 5.4 m/s 0.0 mm 16.3° 994.0 hPa 5.9 m/s
09:00 17.7° 992.7 hPa 4.9 m/s 28.3 mm 17.6° 994.7 hPa 5.8 m/s 76.5 mm 18.5° 991.9 hPa 4.5 m/s 0.2 mm 15.5° 994.2 hPa 5.7 m/s
12:00 17.8° 992.0 hPa 4.8 m/s 36.6 mm 17.8° 993.8 hPa 5.8 m/s 104.6 mm 18.9° 991.4 hPa 4.7 m/s 0.0 mm 15.2° 993.3 hPa 5.5 m/s
15:00 16.7° 990.6 hPa 3.8 m/s 44.1 mm 15.8° 991.1 hPa 4.8 m/s 127.9 mm 18.8° 990.6 hPa 2.6 m/s 0.1 mm 15.9° 991.3 hPa 6.9 m/s
18:00 16.2° 989.1 hPa 2.0 m/s 50.5 mm 16.0° 988.5 hPa 2.6 m/s 147.0 mm 17.7° 990.8 hPa 0.7 m/s 0.0 mm 15.0° 988.2 hPa 4.2 m/s
21:00 13.8° 990.1 hPa 1.2 m/s 0.0 mm 12.0° 986.7 hPa 2.1 m/s 155.0 mm 14.2° 992.2 hPa 0.8 m/s 0.0 mm 14.5° 989.0 hPa 4.3 m/s
 02:07     19:02    Daglengte: 16:55 Zaterdag 31 Jul
00:00 14.0° 991.8 hPa 2.5 m/s 0.0 mm 13.0° 987.8 hPa 4.8 m/s 156.0 mm 14.5° 993.9 hPa 1.8 m/s 0.0 mm 13.4° 990.7 hPa 3.7 m/s
03:00 13.8° 994.7 hPa 2.9 m/s 0.0 mm 13.9° 989.7 hPa 5.0 m/s 156.2 mm 13.8° 995.9 hPa 2.3 m/s 0.0 mm 13.0° 992.5 hPa 3.7 m/s
06:00 16.8° 996.0 hPa 1.9 m/s 0.0 mm 17.4° 991.0 hPa 3.7 m/s 156.2 mm 16.7° 997.3 hPa 1.5 m/s 0.0 mm 16.7° 994.9 hPa 4.0 m/s
09:00 20.3° 996.1 hPa 4.4 m/s 30.3 mm 20.3° 996.1 hPa 4.4 m/s 30.3 mm
12:00 19.6° 998.0 hPa 4.6 m/s 30.3 mm 19.6° 998.0 hPa 4.6 m/s 30.3 mm
15:00 19.5° 998.7 hPa 3.8 m/s 30.4 mm 19.5° 998.7 hPa 3.8 m/s 30.4 mm
18:00 16.5° 999.4 hPa 1.9 m/s 30.4 mm 16.5° 999.4 hPa 1.9 m/s 30.4 mm
21:00 13.9° 999.0 hPa 1.5 m/s 30.4 mm 13.9° 999.0 hPa 1.5 m/s 30.4 mm
 02:09     18:59    Daglengte: 16:50 Zondag 01 Aug
00:00 13.9° 997.9 hPa 1.8 m/s 30.4 mm 13.9° 997.9 hPa 1.8 m/s 30.4 mm
03:00 14.4° 996.2 hPa 1.7 m/s 31.3 mm 14.4° 996.2 hPa 1.7 m/s 31.3 mm
06:00 16.0° 995.4 hPa 2.7 m/s 36.1 mm 16.0° 995.4 hPa 2.7 m/s 36.1 mm
09:00 15.4° 995.2 hPa 1.3 m/s 41.5 mm 15.4° 995.2 hPa 1.3 m/s 41.5 mm
12:00 16.7° 996.2 hPa 2.2 m/s 41.7 mm 16.7° 996.2 hPa 2.2 m/s 41.7 mm
15:00 20.6° 996.7 hPa 4.4 m/s 41.7 mm 20.6° 996.7 hPa 4.4 m/s 41.7 mm
18:00 17.2° 997.8 hPa 3.3 m/s 42.1 mm 17.2° 997.8 hPa 3.3 m/s 42.1 mm
21:00 14.3° 998.6 hPa 2.0 m/s 43.3 mm 14.3° 998.6 hPa 2.0 m/s 43.3 mm
 02:12     18:57    Daglengte: 16:45 Maandag 02 Aug
00:00 13.2° 998.8 hPa 0.8 m/s 43.6 mm 13.2° 998.8 hPa 0.8 m/s 43.7 mm
03:00 12.9° 999.7 hPa 1.1 m/s 43.7 mm 12.9° 999.7 hPa 1.1 m/s 43.7 mm
06:00 17.1° 999.8 hPa 2.5 m/s 43.7 mm 17.1° 999.8 hPa 2.5 m/s 43.7 mm
09:00 19.5° 1000.7 hPa 4.0 m/s 44.3 mm 19.5° 1000.7 hPa 4.0 m/s 44.3 mm
12:00 20.9° 1000.7 hPa 5.0 m/s 44.5 mm 20.9° 1000.7 hPa 5.0 m/s 44.5 mm
15:00 18.0° 1001.4 hPa 3.2 m/s 45.1 mm 18.0° 1001.4 hPa 3.2 m/s 45.1 mm
18:00 14.2° 1002.9 hPa 3.3 m/s 45.8 mm 14.2° 1002.9 hPa 3.3 m/s 45.8 mm
21:00 10.9° 1004.2 hPa 2.2 m/s 45.8 mm 10.9° 1004.2 hPa 2.2 m/s 45.8 mm
 02:14     18:54    Daglengte: 16:40 Dinsdag 03 Aug
00:00 9.7° 1005.8 hPa 2.1 m/s 45.8 mm 9.7° 1005.8 hPa 2.1 m/s 45.8 mm
03:00 9.5° 1007.0 hPa 2.2 m/s 45.8 mm 9.5° 1007.0 hPa 2.2 m/s 45.8 mm
06:00 15.0° 1008.1 hPa 1.9 m/s 45.8 mm 15.0° 1008.1 hPa 1.9 m/s 45.8 mm
09:00 19.4° 1008.7 hPa 2.4 m/s 45.8 mm 19.4° 1008.7 hPa 2.4 m/s 45.8 mm
12:00 17.4° 1009.7 hPa 3.3 m/s 45.8 mm 17.4° 1009.7 hPa 3.3 m/s 45.8 mm
15:00 18.7° 1010.0 hPa 2.6 m/s 45.8 mm 18.7° 1010.0 hPa 2.6 m/s 45.8 mm
18:00 14.7° 1010.7 hPa 1.5 m/s 45.8 mm 14.7° 1010.7 hPa 1.5 m/s 45.8 mm
21:00 10.8° 1012.0 hPa 1.3 m/s 45.8 mm 10.8° 1012.0 hPa 1.3 m/s 45.8 mm
 02:16     18:51    Daglengte: 16:35 Woensdag 04 Aug
00:00 9.8° 1012.3 hPa 1.3 m/s 45.8 mm 9.8° 1012.3 hPa 1.3 m/s 45.8 mm
03:00 10.0° 1012.2 hPa 1.8 m/s 45.8 mm 10.0° 1012.2 hPa 1.8 m/s 45.8 mm
06:00 14.9° 1012.3 hPa 2.1 m/s 45.8 mm 14.9° 1012.3 hPa 2.1 m/s 45.8 mm
12:00 19.3° 1011.7 hPa 2.6 m/s 47.3 mm 19.3° 1011.7 hPa 2.6 m/s 47.3 mm
18:00 15.9° 1011.8 hPa 1.9 m/s 48.8 mm 15.9° 1011.8 hPa 1.9 m/s 48.8 mm
 02:19     18:49    Daglengte: 16:30 Donderdag 05 Aug
00:00 12.6° 1012.9 hPa 1.7 m/s 48.8 mm 12.6° 1012.9 hPa 1.7 m/s 48.8 mm
06:00 17.5° 1013.0 hPa 2.1 m/s 48.8 mm 17.5° 1013.0 hPa 2.1 m/s 48.8 mm
12:00 21.0° 1012.0 hPa 3.7 m/s 49.1 mm 21.0° 1012.0 hPa 3.7 m/s 49.1 mm
18:00 17.4° 1009.7 hPa 3.0 m/s 49.1 mm 17.4° 1009.7 hPa 3.0 m/s 49.1 mm
 02:21     18:46    Daglengte: 16:25 Vrijdag 06 Aug
00:00 16.8° 1007.3 hPa 3.4 m/s 49.1 mm 16.8° 1007.3 hPa 3.4 m/s 49.1 mm
06:00 19.7° 1005.7 hPa 4.3 m/s 49.3 mm 19.7° 1005.7 hPa 4.3 m/s 49.3 mm
12:00 24.1° 1005.4 hPa 4.4 m/s 49.6 mm 24.1° 1005.4 hPa 4.4 m/s 49.6 mm
18:00 20.5° 1004.2 hPa 2.9 m/s 50.1 mm 20.5° 1004.2 hPa 2.9 m/s 50.1 mm
 02:24     18:43    Daglengte: 16:19 Zaterdag 07 Aug
00:00 14.7° 1009.6 hPa 1.8 m/s 0.7 mm
06:00 17.9° 1008.6 hPa 2.9 m/s 0.8 mm
12:00 20.7° 1007.9 hPa 3.2 m/s 2.3 mm
18:00 17.6° 1007.5 hPa 2.3 m/s 2.0 mm
 02:26     18:41    Daglengte: 16:15 Zondag 08 Aug
00:00 15.3° 1007.5 hPa 2.1 m/s 0.6 mm
06:00 17.8° 1007.2 hPa 2.1 m/s 0.5 mm
12:00 21.1° 1007.9 hPa 2.6 m/s 0.8 mm
18:00 17.7° 1008.5 hPa 1.8 m/s 0.7 mm
 02:29     18:38    Daglengte: 16:09 Maandag 09 Aug
00:00 15.1° 1009.5 hPa 1.2 m/s 0.5 mm
06:00 17.9° 1010.1 hPa 1.6 m/s 0.4 mm
12:00 21.3° 1011.0 hPa 2.4 m/s 0.9 mm
18:00 17.4° 1011.2 hPa 1.1 m/s 0.6 mm
 02:31     18:35    Daglengte: 16:04 Dinsdag 10 Aug
00:00 14.7° 1011.7 hPa 0.5 m/s 0.3 mm